[[{"header":{"parameterUnit":"m.s-1","parameterCategory":1,"la1":30.2991,"la2":30.254,"lo1":-89.0895,"lo2":-89.0444,"dy":0.0017,"dx":0.0017,"nx":28,"ny":28,"refTime":"2023-08-10T21:00:00:Z","depth":0,"parameterNumber":2,"parameterNumberName":"U-component_of_WINDS"},"data":[0,0,0,0,0,0,0,0,0,0,0,0,0,0,0,0,0,0,0,0,0,0,0,0,0,0,0,0,0,0,0,0,0,0,0,0,0,0,0,0,0,0,0,0,0,0,0,0,0,0,0,0,0,0,0,0,0,0,5.6901,5.6902,0,5.7054,5.7056,5.7058,5.6986,5.6982,5.6978,5.6975,5.7134,5.7141,5.7149,0,0,0,0,0,0,0,0,0,0,0,0,0,5.6546,5.6553,5.6901,5.6902,5.6904,5.7054,5.7056,5.7058,5.6987,5.6982,5.6977,5.6973,5.7131,5.714,5.715,0,0,0,0,0,0,0,0,0,0,0,0,0,5.67,5.6555,5.69,5.6887,5.6887,5.7053,5.7056,5.7059,5.6988,5.6982,5.6976,5.6971,5.7128,5.7139,5.7151,5.734,0,0,5.7187,5.7192,0,0,0,0,0,0,0,0,5.6691,5.6713,5.6887,5.6888,5.6889,5.6995,5.6989,5.7153,5.6989,5.695,5.6975,5.6968,5.7092,5.7107,5.7148,5.7347,5.7354,5.7188,5.7195,5.72,5.7203,0,0,0,0,0,0,0,5.6681,5.6706,5.6961,5.6889,5.6891,5.6873,5.6889,5.702,5.7052,5.6953,5.6948,5.6967,5.7092,5.7137,5.7151,5.7357,5.7188,5.7198,5.7205,5.721,5.7716,5.7722,0,0,0,0,0,0,5.667,5.6698,5.6956,5.6966,5.6774,5.6884,5.6902,5.6967,5.705,5.7057,5.6972,5.6963,5.712,5.7138,5.7157,5.7382,5.72,5.7211,5.7218,5.771,5.7718,5.7725,0,0,0,0,0,0,5.6663,5.6694,5.695,5.6831,5.6862,5.6897,5.697,5.6973,5.7018,5.7064,5.707,5.7012,5.7116,5.714,5.7294,5.7386,5.7216,5.7227,5.7702,5.7712,5.7721,5.7834,0,0,0,0,0,0,5.6653,5.6692,5.6764,5.6833,5.6868,5.7085,5.6976,5.698,5.7038,5.7028,5.7104,5.7111,5.7113,5.7277,5.7306,5.7399,5.7236,5.7694,5.7707,5.7718,5.7822,5.7846,5.7867,0,0,0,0,0,5.6641,5.6791,5.6768,5.68,5.6959,5.7091,5.7111,5.7111,5.7046,5.7119,5.7148,5.7108,5.7372,5.7294,5.7325,5.7424,5.7688,5.7703,5.7717,5.7812,5.7842,5.7866,0,0,0,0,0,0,5.6733,5.6799,5.6775,5.6952,5.7016,5.7078,5.717,5.7142,5.7227,5.7214,5.721,5.7228,5.7387,5.7421,5.7332,5.761,5.752,5.7542,5.7582,5.761,5.7632,5.762,5.7246,0,0,0,0,0,5.6773,5.6874,5.6927,5.7078,5.7111,5.7136,5.7193,5.7187,5.7253,5.728,5.7321,5.7388,5.7485,5.755,5.7642,5.7827,5.7842,5.7911,5.7933,5.7951,5.7969,5.8067,5.8098,5.7772,5.7772,5.7771,0,0,5.6859,5.6908,5.6972,5.7098,5.7147,5.7251,5.7159,5.7274,5.7351,5.7298,5.7445,5.7478,5.7552,5.7722,5.7799,5.7755,5.8063,5.7969,5.7983,5.7992,5.8085,5.8116,5.8144,5.7782,5.778,5.7778,0,0,5.7067,5.7115,5.7244,5.7295,5.737,5.7385,5.7417,5.7484,5.7503,5.765,5.7612,5.7704,5.7873,5.7926,5.7976,5.8203,5.8169,5.8234,5.835,5.8446,5.8472,5.8494,5.8574,5.8603,5.8252,5.8253,5.8253,0,5.7163,5.7319,5.7315,5.7432,5.7488,5.7444,5.7575,5.7625,5.7727,5.7766,5.7716,5.7925,5.7973,5.8153,5.8208,5.8251,5.8285,5.8225,5.8468,5.8491,5.8512,5.8588,5.8618,5.826,5.8259,5.8258,5.8257,0,5.7433,5.7541,5.7637,5.7735,5.7802,5.7926,5.794,5.8009,5.7997,5.8017,5.8167,5.8222,5.8323,5.8366,5.8357,5.8546,5.8516,5.8468,5.8377,5.8551,5.8621,5.865,5.827,5.8267,5.8265,5.8263,0,0,5.7703,5.7797,5.7832,5.7875,5.7954,5.8038,5.816,5.8258,5.8316,5.8388,5.8489,5.8632,5.8587,5.8643,5.8639,5.8723,5.8898,5.8664,5.8666,5.8704,5.9107,5.9142,5.9176,5.8876,5.8882,5.8886,5.91,0,5.7916,5.8127,5.8127,5.8322,5.8421,5.8381,5.8486,5.8546,5.8568,5.8656,5.868,5.8781,5.8715,5.8748,5.883,5.8859,5.8978,5.8844,5.8969,5.8973,5.895,5.9213,5.9251,5.945,5.9128,5.9133,5.9137,0,5.8192,5.8271,5.8476,5.8539,5.8581,5.8676,5.8765,5.885,5.8917,5.8926,5.8989,5.8971,5.9094,5.9001,5.917,5.9078,5.9129,5.9151,5.9159,5.9169,5.9064,5.9229,5.9514,5.9543,5.9181,5.9177,5.9174,0,5.8366,5.8525,5.8667,5.8705,5.8783,5.885,5.8886,5.8947,5.9006,5.9085,5.9122,5.9215,5.9265,5.9337,5.9345,5.9277,5.9514,5.9422,5.9525,5.9525,5.9575,5.9572,5.9871,5.9612,5.9612,5.9611,5.961,0,5.8602,5.8729,5.8746,5.8833,5.8974,5.8972,5.9111,5.914,5.9195,5.9287,5.9259,5.9346,5.9351,5.9441,5.9448,5.9585,5.9609,5.962,5.962,5.9622,5.962,5.9654,5.9639,5.9619,5.9617,5.9616,5.9614,0,5.882,5.8837,5.8989,5.905,5.9068,5.9168,5.922,5.9303,5.9322,5.9439,5.9467,5.9497,5.96,5.9615,5.9738,5.9742,5.9906,5.9893,5.9883,5.9881,5.9982,5.9971,6.0312,6.0356,6.007,6.0073,6.0075,0,5.8969,5.9065,5.9136,5.9195,5.9234,5.933,5.9389,5.9391,5.9454,5.9537,5.961,5.9711,5.9791,5.9959,5.9991,6.0084,6.0072,6.0185,6.0085,6.0083,6.0071,6.0064,6.0073,6.0203,6.0206,6.0209,6.0211,0,5.9231,5.9234,5.932,5.941,5.9481,5.9552,5.9618,5.9668,5.9679,5.9751,5.9856,5.9918,6.0042,6.0142,6.0233,6.027,6.0242,6.0242,6.027,6.0272,6.0262,6.0266,5.9933,6.0234,6.0232,6.023,6.0229,6.0228,5.9417,5.95,5.9562,5.9659,5.9708,5.9771,5.9851,5.988,5.9967,6.0067,6.0063,6.0179,6.0242,6.0362,6.0405,6.0495,6.0458,6.0499,6.0509,6.0519,6.0528,6.0249,6.0512,6.0511,6.051,6.051,6.0509,0,5.9676,5.9713,5.9802,5.9895,5.9971,5.9938,6.001,6.0075,6.0177,6.0238,6.0317,6.0437,6.0533,6.0573,6.0668,6.0732,6.0721,6.0756,6.0751,6.0759,6.0557,6.0522,6.0763,6.0763,6.0763,6.0763,6.0763,6.0763,5.9819,5.9956,5.9966,6.0128,6.0165,6.0276,6.032,6.0377,6.0425,6.056,6.0639,6.0665,6.0717,6.0815,6.0901,6.0911,6.0946,6.0986,6.099,6.0799,6.0774,6.0749,6.0716,6.0994,6.0995,6.1184,6.1186,6.1187]},{"header":{"parameterUnit":"m.s-1","parameterCategory":1,"la1":30.2991,"la2":30.254,"lo1":-89.0895,"lo2":-89.0444,"dy":0.0017,"dx":0.0017,"nx":28,"ny":28,"refTime":"2023-08-10T21:00:00:Z","depth":0,"parameterNumber":3,"parameterNumberName":"V-component_of_WINDS"},"data":[0,0,0,0,0,0,0,0,0,0,0,0,0,0,0,0,0,0,0,0,0,0,0,0,0,0,0,0,0,0,0,0,0,0,0,0,0,0,0,0,0,0,0,0,0,0,0,0,0,0,0,0,0,0,0,0,0,0,1.3213,1.3214,0,1.3262,1.3262,1.3263,1.3235,1.3234,1.3232,1.3231,1.3283,1.3286,1.3288,0,0,0,0,0,0,0,0,0,0,0,0,0,1.3097,1.31,1.3213,1.3214,1.3214,1.3262,1.3262,1.3263,1.3235,1.3234,1.3232,1.3231,1.3282,1.3285,1.3289,0,0,0,0,0,0,0,0,0,0,0,0,0,1.3147,1.31,1.3213,1.3206,1.3206,1.3261,1.3262,1.3263,1.3236,1.3234,1.3232,1.323,1.3281,1.3285,1.3289,1.3355,0,0,1.3301,1.3303,0,0,0,0,0,0,0,0,1.3144,1.3151,1.3207,1.3207,1.3207,1.324,1.324,1.3294,1.3236,1.3225,1.3231,1.3229,1.3271,1.3275,1.3289,1.3357,1.3359,1.3302,1.3304,1.3306,1.3307,0,0,0,0,0,0,0,1.3141,1.3149,1.3232,1.3207,1.3207,1.3201,1.3206,1.325,1.3259,1.3225,1.3223,1.323,1.327,1.3285,1.329,1.336,1.3301,1.3305,1.3307,1.3309,1.3483,1.3485,0,0,0,0,0,0,1.3138,1.3146,1.3231,1.3234,1.317,1.3205,1.321,1.3232,1.3258,1.326,1.3231,1.3228,1.328,1.3285,1.3292,1.337,1.3306,1.3309,1.3312,1.3481,1.3484,1.3486,0,0,0,0,0,0,1.3135,1.3145,1.3229,1.319,1.32,1.3209,1.3233,1.3234,1.3249,1.3262,1.3264,1.3245,1.3278,1.3286,1.3339,1.3371,1.3311,1.3315,1.3478,1.3482,1.3485,1.3527,0,0,0,0,0,0,1.3132,1.3145,1.317,1.319,1.3202,1.3275,1.3235,1.3236,1.3255,1.3252,1.3276,1.3278,1.3277,1.3333,1.3343,1.3376,1.3318,1.3476,1.348,1.3484,1.3523,1.3531,1.3539,0,0,0,0,0,1.3128,1.318,1.3171,1.3181,1.3233,1.3277,1.3284,1.3281,1.3258,1.3283,1.3292,1.3277,1.3366,1.3339,1.3349,1.3384,1.3474,1.3479,1.3484,1.3519,1.353,1.3539,0,0,0,0,0,0,1.3164,1.3183,1.3173,1.3233,1.3254,1.3272,1.3304,1.3292,1.332,1.3316,1.3312,1.3318,1.3373,1.3384,1.3353,1.3448,1.3416,1.3424,1.344,1.345,1.3458,1.3454,1.3321,0,0,0,0,0,1.3179,1.3212,1.3227,1.3279,1.3289,1.3295,1.3314,1.331,1.3331,1.334,1.3353,1.3374,1.3407,1.3429,1.346,1.3524,1.3529,1.3553,1.3561,1.3567,1.3574,1.3608,1.3619,1.3503,1.3503,1.3503,0,0,1.3211,1.3225,1.3246,1.3287,1.3302,1.3337,1.3303,1.3341,1.3367,1.3346,1.3396,1.3406,1.343,1.3489,1.3515,1.3499,1.3607,1.3574,1.3579,1.3582,1.3614,1.3625,1.3635,1.3506,1.3506,1.3505,0,0,1.3286,1.33,1.3344,1.336,1.3383,1.3386,1.3396,1.3416,1.3422,1.3472,1.3457,1.3487,1.3544,1.3561,1.3578,1.3658,1.3645,1.3668,1.371,1.3743,1.3753,1.3761,1.3789,1.3799,1.3674,1.3674,1.3675,0,1.3322,1.3374,1.3369,1.3408,1.3426,1.3407,1.3452,1.3468,1.3501,1.3514,1.3495,1.3565,1.358,1.3642,1.3661,1.3675,1.3687,1.3666,1.3751,1.376,1.3767,1.3794,1.3805,1.3677,1.3677,1.3677,1.3676,0,1.3417,1.3453,1.3486,1.3517,1.3539,1.3581,1.3582,1.3605,1.3599,1.3604,1.3655,1.3671,1.3705,1.3719,1.3714,1.378,1.377,1.3752,1.3719,1.3781,1.3806,1.3817,1.3681,1.368,1.3679,1.3678,0,0,1.3518,1.3544,1.3556,1.357,1.3593,1.3621,1.3662,1.3694,1.3713,1.3736,1.377,1.3818,1.38,1.3819,1.3815,1.3845,1.3907,1.3823,1.3823,1.3838,1.398,1.3994,1.4006,1.3898,1.39,1.3901,1.3978,0,1.3595,1.3666,1.3662,1.3729,1.3762,1.3744,1.3779,1.3798,1.3803,1.3832,1.3838,1.3872,1.3846,1.3857,1.3885,1.3893,1.3935,1.3887,1.393,1.3932,1.3926,1.402,1.4035,1.4107,1.3988,1.399,1.3991,0,1.3694,1.3719,1.3789,1.3806,1.382,1.3852,1.3881,1.3908,1.3929,1.393,1.395,1.3941,1.3983,1.3949,1.4006,1.3973,1.399,1.3997,1.3999,1.4004,1.3966,1.4027,1.413,1.4141,1.4007,1.4006,1.4004,0,1.3761,1.3812,1.386,1.3872,1.3893,1.3916,1.3926,1.3944,1.3964,1.3988,1.4001,1.403,1.4047,1.407,1.407,1.4045,1.4127,1.4093,1.413,1.413,1.4149,1.4148,1.4257,1.416,1.4159,1.4159,1.4159,0,1.3847,1.3891,1.389,1.392,1.3968,1.3962,1.401,1.4018,1.4034,1.4065,1.4051,1.4081,1.4078,1.4108,1.4107,1.4155,1.4162,1.4165,1.4165,1.4167,1.4166,1.4178,1.4174,1.4162,1.4161,1.4161,1.416,0,1.393,1.3931,1.3983,1.3998,1.4003,1.4038,1.4052,1.408,1.4083,1.4123,1.4131,1.4137,1.4171,1.4173,1.4213,1.4212,1.427,1.4264,1.4263,1.4262,1.4299,1.4296,1.4419,1.4435,1.4328,1.4329,1.4329,0,1.3986,1.4019,1.4037,1.4057,1.4068,1.4099,1.4118,1.4114,1.4135,1.4159,1.4184,1.4217,1.4243,1.4298,1.4306,1.4336,1.4331,1.4372,1.4336,1.4336,1.4332,1.433,1.4333,1.438,1.4381,1.4382,1.4383,0,1.4084,1.4082,1.411,1.4138,1.4161,1.4183,1.4203,1.4219,1.4217,1.4241,1.4275,1.4295,1.4335,1.4367,1.4396,1.4407,1.4395,1.4394,1.4404,1.4407,1.4405,1.4407,1.4283,1.4391,1.439,1.439,1.4389,1.4389,1.4155,1.4183,1.42,1.4231,1.4246,1.4265,1.4292,1.4298,1.4326,1.4358,1.4353,1.4391,1.441,1.4447,1.446,1.449,1.4476,1.4491,1.4494,1.4498,1.4502,1.44,1.4495,1.4495,1.4494,1.4494,1.4494,0,1.4253,1.4262,1.4291,1.4319,1.4343,1.4328,1.4349,1.4371,1.4405,1.4422,1.4448,1.4487,1.4518,1.4527,1.4558,1.458,1.4575,1.4588,1.4586,1.4589,1.4513,1.4501,1.4591,1.4591,1.4591,1.4591,1.4591,1.4591,1.4306,1.4353,1.4353,1.4407,1.4416,1.4453,1.4466,1.4483,1.4497,1.4541,1.4567,1.4573,1.4587,1.4618,1.4646,1.4648,1.466,1.4675,1.4675,1.4604,1.4594,1.4585,1.4574,1.4678,1.4678,1.4749,1.4749,1.475]}]]